TimeEST,TemperatureF,Dew PointF,Humidity,Sea Level PressureIn,VisibilityMPH,Wind Direction,Wind SpeedMPH,Gust SpeedMPH,PrecipitationIn,Events,Conditions,WindDirDegrees,DateUTC
12:53 AM,46.0,30.9,56,30.03,10.0,WNW,21.9,29.9,N/A,,Overcast,290,2013-11-10 05:53:00
1:53 AM,44.1,30.0,58,30.04,10.0,WNW,21.9,33.4,N/A,,Overcast,290,2013-11-10 06:53:00
2:53 AM,43.0,26.1,51,30.07,10.0,WNW,19.6,34.5,N/A,,Overcast,290,2013-11-10 07:53:00
3:53 AM,42.1,28.9,60,30.09,10.0,West,17.3,32.2,N/A,,Overcast,280,2013-11-10 08:53:00
4:53 AM,42.1,30.0,62,30.12,10.0,WNW,18.4,28.8,N/A,,Mostly Cloudy,300,2013-11-10 09:53:00
5:53 AM,41.0,30.0,65,30.14,10.0,WNW,18.4,34.5,N/A,,Overcast,290,2013-11-10 10:53:00
6:53 AM,41.0,30.0,65,30.17,10.0,WNW,13.8,31.1,N/A,,Overcast,300,2013-11-10 11:53:00
7:53 AM,42.1,30.9,65,30.20,10.0,WNW,16.1,27.6,N/A,,Overcast,300,2013-11-10 12:53:00
8:53 AM,42.1,28.9,60,30.23,10.0,WNW,11.5,27.6,N/A,,Overcast,300,2013-11-10 13:53:00
9:53 AM,43.0,30.9,62,30.25,10.0,NW,11.5,26.5,N/A,,Overcast,310,2013-11-10 14:53:00
10:53 AM,43.0,30.9,62,30.28,10.0,NW,12.7,25.3,N/A,,Overcast,310,2013-11-10 15:53:00
11:53 AM,43.0,32.0,65,30.30,10.0,WNW,10.4,19.6,N/A,,Overcast,300,2013-11-10 16:53:00
12:53 PM,44.1,32.0,63,30.30,10.0,NW,9.2,18.4,N/A,,Overcast,310,2013-11-10 17:53:00
1:53 PM,44.1,32.0,63,30.30,10.0,NW,9.2,18.4,N/A,,Overcast,310,2013-11-10 18:53:00
2:53 PM,44.1,32.0,63,30.30,10.0,NW,6.9,16.1,N/A,,Mostly Cloudy,310,2013-11-10 19:53:00
3:53 PM,43.0,30.9,62,30.31,10.0,Variable,6.9,-,N/A,,Mostly Cloudy,0,2013-11-10 20:53:00
4:53 PM,43.0,30.9,62,30.32,10.0,West,5.8,-,N/A,,Scattered Clouds,280,2013-11-10 21:53:00
5:53 PM,39.0,28.9,67,30.31,10.0,Calm,Calm,-,N/A,,Clear,0,2013-11-10 22:53:00
6:53 PM,37.9,30.9,76,30.30,10.0,South,3.5,-,N/A,,Clear,180,2013-11-10 23:53:00
7:53 PM,39.0,30.9,73,30.29,10.0,South,4.6,-,N/A,,Clear,180,2013-11-11 00:53:00
8:53 PM,37.0,30.0,76,30.29,10.0,Calm,Calm,-,N/A,,Scattered Clouds,0,2013-11-11 01:53:00
9:53 PM,39.0,30.0,70,30.27,10.0,South,8.1,-,N/A,,Mostly Cloudy,190,2013-11-11 02:53:00
10:53 PM,39.9,32.0,73,30.25,10.0,SSW,6.9,-,N/A,,Overcast,200,2013-11-11 03:53:00
11:53 PM,39.9,32.0,73,30.24,10.0,South,6.9,-,N/A,,Overcast,190,2013-11-11 04:53:00